Powrót do katalogu

POEM

AktywnyNaukaVLEO
NORAD 52939·PAYLOAD·🇮🇳 India

Wystrzelony Jun 30, 2022 z Satish Dhawan Space Centre

Loading…

Następne Przeloty (najbliższe 24 godziny)

TLE

Starzejące sięSource: Space-Track

Epoka: Sep 13, 2026, 01:41 UTC

1 52939U 22072E   26256.07072241  .00006327  00000-0  20718-3 0  9994
2 52939   9.9513 122.1105 0022054  63.4383 296.8091 15.24953690232948

Śledź POEM w czasie rzeczywistym z AllMySat

Download on the App Store